STARLINK-31032, 58535

Orbit data source: Space-Track

STARLINK-31032, 58535 is a payload satellite owned by SpaceX/Seattle (US) in LEO that was launched on Fri, 08 Dec 2023 UTC via an FALCON 9 launch vehicle from the Air Force Western Test Range (AFWTR). Payload-class satellites include a variety of spacecraft equipped with specific instruments for various scientific and technological missions. These include communications satellites like Starlink; space stations such as the ISS; scientific satellites like the Hubble; Earth observation satellites from companies like Planet Labs, Umbra, and HawkEye 360; GPS; miniature CubeSats for education and research; and military/defense satellites.

Loading next visibility...
Identifier
58535, 2023-192E
Orbit
LEO
Country
Flag of USUS
Related business
Manufacturer
SpaceX/Seattle
Mission
Operational Commercial Communications
Bus & Motor
STARLINK V2M, Unknown motor
Mass
730 kg wet, ~700 kg dry
Launch date (UTC)
2023-12-08 (3 years ago)
Launch vehicle
FALCON 9
Launch site
Air Force Western Test Range (AFWTR)
Object type
Payload
Rocket body
Debris
Shape & HBR
Box + 2 Pan, 17.7 m
Radar Cross Section
33.884 m², Large (>1 m²)

Expand to show TLE details & history
Last TLE update: 3 days ago

TLE from 3 days ago
0 STARLINK-31032
1 58535U 23192E   26170.60651606 -.00000931  00000-0 -16445-4 0  9998
2 58535  53.1602 307.6247 0000922  83.3561 276.7547 15.34375237141614
Epoch: 2026-06-19T14:33Z
TLE epoch observation values (Epoch: 2026-06-19T14:33:22.987Z)
Latitude
0.00001°
Longitude
-178.55414°
Altitude
463.604 km
Speed
7.636 km/s
True Right ascension
20h 30m 29s
True Declination
0° 00' 00"
Sunlit
Object was in full shadow at epoch
Visualization orbit readout
Latitude
Unknown
Longitude
Unknown
Altitude
Unknown
Speed
Unknown
Apparent Right ascension
Unknown
Apparent Declination
Unknown
Sunlit
N/A
Visualization observer readout
Local Sidereal Time
21:27:39
Azimuth
Unknown
Elevation
Unknown
Doppler factor
Unknown
Orbital elements
Apogee altitude
463.664 km
Perigee altitude
462.403 km
Semi-major axis
6,841.171 km
Eccentricity
0.00009
Inclination
53.1602°
RAAN
307.6247°
Arg. of periapsis
83.3561°
True anomaly
276.74421°
Mean anomaly
276.7547°
Eccentric anomaly
276.74945°
Mean motion
3.83573 °/min
Orbital period
93.85 mins
BSTAR
-0.000016445
Loading maneuver chart data...
Computing Atmospheric mass density...
Loading historical data...
Loading historical data...
Loading historical data...
Loading historical data...
Loading historical data...
Loading historical data...
Loading historical data...

Documentation

Showing up to 5 results
|